星链-4259 (STARLINK-4259 )

导读

STARLINK-4259是美国SpaceX公司星链(Starlink)卫星互联网项目的组网卫星,于2022年7月7日发射升空,属于星链低轨通信星座的组成部分。 星链计划旨在为全球偏远地区提供低延迟高速宽带服务,这类卫星采用平板设计与霍尔推进技术,可自主避障,寿命结束后会再入大气层销毁。该卫星服务目前已在全球数十个国家落地商用。

基本信息
目录编号:
52987
目录名称:
STARLINK-4259
国际标识:
2022-076B
轨道中心:
EARTH
卫星名称:
星链-4259
卫星全名:
星链-4259 (STARLINK-4259 )
卫星状态:
在轨 (已飞行1441 天)
发射日期:
2022-07-07 UTC
国别 :
美国 (US)
星等 :
--
轨道信息
数据来源 国际轨道数据
星历时间: 2026-06-17T05:53:49+0800
13小时前
查看轨道信息
半长轴: 6917.78km
偏心率: 0.0001495
轨道倾角: 53.160°
近地点辐角 81.641°
升交点赤经 18.598°
平近点角 278.475°
近地点: 538.608km
远地点: 540.678km
周期: 95.435分钟
每日圈数: 15.088731
详细信息
固有亮度:
5
最大亮度:
2.5
卫星平台:
Starlink v1.5
覆盖范围:
全球
运营商:
太空探索技术公司
运营商所在国:
美国
制造商(研发单位):
太空探索技术公司
制造商所在国:
美国
使用方式:
暂无
卫星简介
星链(Starlink)计划是由太空探索技术公司(SpaceX)提出的一个巨型低轨卫星互联网星座项目,计划在2019年至2024年间在太空搭建由约1.2万颗卫星组成的“星链”网络,其中1584颗将部署在地球上空550千米处的近地轨道,并从2020年开始工作。该卫星仍在工作。
2D轨道图
3D轨道图
轨道高度分析图
轨道倾角分析图
轨道综合分析图
查看轨道综合分析图